Retour au catalogue

ASTRA 5B

ActifCommunicationsGEO
NORAD 39617·PAYLOAD·🇱🇺 Luxembourg

Lancé Mar 22, 2014 depuis Guiana Space Centre

Loading…

TLE

FraisSource: CelesTrak SupGP

Époque: Sep 13, 2026, 23:30 UTC

1 39617C 14011B   26256.97916667  .00000227  00000+0  00000+0 0  2560
2 39617   0.1002 294.7831 0002898 254.7022 179.4753  1.00269513    18

Suivez ASTRA 5B en temps réel avec AllMySat

Download on the App Store